When you browse on this site, cookies collect data to enhance your experience and personalize the content and advertising you see.
Visit our Privacy Policy to learn more. By continuing to use the site, you agree to this use of cookies and data.
  • în România
  • Lista ţărilor
  • Pe 7 zile
  • Temperatura apei
  • Meteo pe hartă
  • Widget-uri
  • user-avatar
    Intrare

    Meteo pe oră la Ordino

    Astăzi, 29 Mai, Vineri

    Timp Temperatura Precipitaţii Vânt Presiune Umiditate
    00:00 +10°C° 0 mm 1 m/s 635 mmHg 90%
    01:00 +10°C° 0 mm 1 m/s 635 mmHg 88%
    02:00 +10°C° 0 mm 1 m/s 634 mmHg 86%
    03:00 +10°C° 0 mm 1 m/s 634 mmHg 84%
    04:00 +10°C° 0 mm 1 m/s 634 mmHg 81%
    05:00 +11°C° 0 mm 1 m/s 634 mmHg 77%
    06:00 +12°C° 0 mm 1 m/s 634 mmHg 74%
    07:00 +14°C° 0 mm 1 m/s 635 mmHg 62%
    08:00 +18°C° 0 mm 1 m/s 636 mmHg 50%
    09:00 +20°C° 0 mm 1 m/s 637 mmHg 38%
    10:00 +21°C° 0 mm 1 m/s 637 mmHg 37%
    11:00 +20°C° 0 mm 2 m/s 637 mmHg 36%
    12:00 +21°C° 0 mm 2 m/s 637 mmHg 34%
    13:00 +21°C° 0.2 mm 2 m/s 636 mmHg 39%
    14:00 +20°C° 0.2 mm 2 m/s 635 mmHg 43%
    15:00 +19°C° 0.2 mm 2 m/s 635 mmHg 48%
    16:00 +18°C° 0.7 mm 2 m/s 634 mmHg 59%
    17:00 +16°C° 0.7 mm 2 m/s 634 mmHg 69%
    18:00 +15°C° 0.7 mm 1 m/s 633 mmHg 80%
    19:00 +13°C° 0.2 mm 1 m/s 633 mmHg 85%
    20:00 +12°C° 0.2 mm 1 m/s 633 mmHg 89%
    21:00 +10°C° 0.2 mm 1 m/s 633 mmHg 93%
    22:00 +10°C° 0 mm 1 m/s 633 mmHg 92%
    23:00 +10°C° 0 mm 1 m/s 633 mmHg 92%

    Mâine, 30 Mai, Sâmbătă

    Timp Temperatura Precipitaţii Vânt Presiune Umiditate
    00:00 +9°C° 0 mm 1 m/s 633 mmHg 91%
    01:00 +9°C° 0 mm 1 m/s 632 mmHg 90%
    02:00 +9°C° 0 mm 1 m/s 632 mmHg 90%
    03:00 +9°C° 0 mm 1 m/s 632 mmHg 89%
    04:00 +10°C° 0 mm 1 m/s 633 mmHg 87%
    05:00 +11°C° 0 mm 1 m/s 633 mmHg 86%
    06:00 +12°C° 0 mm 1 m/s 633 mmHg 84%
    07:00 +13°C° 0 mm 1 m/s 634 mmHg 74%
    08:00 +15°C° 0 mm 1 m/s 635 mmHg 64%
    09:00 +18°C° 0 mm 1 m/s 635 mmHg 54%
    10:00 +19°C° 0 mm 1 m/s 635 mmHg 52%
    11:00 +19°C° 0 mm 2 m/s 635 mmHg 49%
    12:00 +20°C° 0 mm 2 m/s 635 mmHg 46%
    13:00 +19°C° 0.3 mm 2 m/s 635 mmHg 51%
    14:00 +19°C° 0.3 mm 2 m/s 635 mmHg 55%
    15:00 +18°C° 0.3 mm 2 m/s 634 mmHg 60%
    16:00 +18°C° 0.3 mm 1 m/s 634 mmHg 66%
    17:00 +16°C° 0.3 mm 1 m/s 633 mmHg 73%
    18:00 +15°C° 0.3 mm 1 m/s 633 mmHg 80%
    19:00 +14°C° 0 mm 1 m/s 633 mmHg 85%
    20:00 +12°C° 0 mm 1 m/s 632 mmHg 89%
    21:00 +11°C° 0 mm 1 m/s 632 mmHg 94%
    22:00 +11°C° 0 mm 1 m/s 632 mmHg 93%
    23:00 +10°C° 0 mm 1 m/s 632 mmHg 91%

    Poimâine, 31 Mai, Duminică

    Timp Temperatura Precipitaţii Vânt Presiune Umiditate
    00:00 +10°C° 0 mm 1 m/s 631 mmHg 90%
    01:00 +10°C° 0 mm 1 m/s 631 mmHg 89%
    02:00 +10°C° 0 mm 1 m/s 631 mmHg 87%
    03:00 +9°C° 0 mm 1 m/s 631 mmHg 86%
    04:00 +10°C° 0 mm 1 m/s 631 mmHg 83%
    05:00 +11°C° 0 mm 1 m/s 632 mmHg 80%
    06:00 +12°C° 0 mm 1 m/s 632 mmHg 77%
    07:00 +14°C° 0 mm 1 m/s 633 mmHg 67%
    08:00 +16°C° 0 mm 1 m/s 634 mmHg 58%
    09:00 +20°C° 0 mm 1 m/s 635 mmHg 48%
    10:00 +20°C° 0 mm 2 m/s 635 mmHg 46%
    11:00 +20°C° 0 mm 2 m/s 635 mmHg 43%
    12:00 +21°C° 0 mm 2 m/s 635 mmHg 40%
    13:00 +20°C° 0.4 mm 2 m/s 635 mmHg 48%
    14:00 +20°C° 0.4 mm 2 m/s 634 mmHg 56%
    15:00 +19°C° 0.4 mm 2 m/s 633 mmHg 64%
    16:00 +19°C° 0.9 mm 1 m/s 633 mmHg 71%
    17:00 +18°C° 0.9 mm 1 m/s 633 mmHg 77%
    18:00 +16°C° 0.9 mm 1 m/s 632 mmHg 84%
    19:00 +15°C° 0.6 mm 1 m/s 632 mmHg 86%
    20:00 +13°C° 0.6 mm 1 m/s 632 mmHg 89%
    21:00 +12°C° 0.6 mm 1 m/s 632 mmHg 91%
    22:00 +12°C° 0.3 mm 1 m/s 632 mmHg 90%
    23:00 +12°C° 0.3 mm 1 m/s 631 mmHg 89%

    1 Iunie, Luni

    Timp Temperatura Precipitaţii Vânt Presiune Umiditate
    00:00 +11°C° 0.3 mm 1 m/s 631 mmHg 88%
    01:00 +11°C° 0 mm 1 m/s 631 mmHg 87%
    02:00 +11°C° 0 mm 1 m/s 631 mmHg 86%
    03:00 +10°C° 0 mm 1 m/s 631 mmHg 85%
    04:00 +11°C° 0 mm 1 m/s 631 mmHg 84%
    05:00 +12°C° 0 mm 1 m/s 632 mmHg 84%
    06:00 +13°C° 0 mm 1 m/s 632 mmHg 83%
    07:00 +15°C° 0.1 mm 1 m/s 633 mmHg 75%
    08:00 +16°C° 0.1 mm 1 m/s 633 mmHg 67%
    09:00 +19°C° 0.1 mm 1 m/s 634 mmHg 59%
    10:00 +19°C° 0.9 mm 1 m/s 634 mmHg 62%
    11:00 +19°C° 0.9 mm 1 m/s 634 mmHg 66%
    12:00 +19°C° 0.9 mm 1 m/s 634 mmHg 70%
    13:00 +19°C° 0.9 mm 1 m/s 634 mmHg 69%
    14:00 +19°C° 0.9 mm 1 m/s 633 mmHg 69%
    15:00 +19°C° 0.9 mm 1 m/s 633 mmHg 69%
    16:00 +18°C° 0.3 mm 1 m/s 633 mmHg 70%
    17:00 +16°C° 0.3 mm 1 m/s 633 mmHg 72%
    18:00 +16°C° 0.3 mm 1 m/s 633 mmHg 73%
    19:00 +14°C° 0 mm 1 m/s 632 mmHg 80%
    20:00 +12°C° 0 mm 1 m/s 632 mmHg 87%
    21:00 +11°C° 0 mm 1 m/s 632 mmHg 93%
    22:00 +10°C° 0 mm 1 m/s 632 mmHg 91%
    23:00 +10°C° 0 mm 1 m/s 632 mmHg 89%

    2 Iunie, Marţi

    Timp Temperatura Precipitaţii Vânt Presiune Umiditate
    00:00 +10°C° 0 mm 1 m/s 631 mmHg 87%
    01:00 +9°C° 0 mm 1 m/s 631 mmHg 85%
    02:00 +9°C° 0 mm 1 m/s 631 mmHg 83%
    03:00 +9°C° 0 mm 1 m/s 631 mmHg 81%
    04:00 +10°C° 0 mm 1 m/s 631 mmHg 81%
    05:00 +11°C° 0 mm 1 m/s 632 mmHg 81%
    06:00 +12°C° 0 mm 1 m/s 632 mmHg 80%
    07:00 +14°C° 0 mm 1 m/s 633 mmHg 73%
    08:00 +16°C° 0 mm 1 m/s 634 mmHg 66%
    09:00 +19°C° 0 mm 1 m/s 635 mmHg 59%
    10:00 +18°C° 0.1 mm 2 m/s 634 mmHg 60%
    11:00 +18°C° 0.1 mm 2 m/s 634 mmHg 60%
    12:00 +18°C° 0.1 mm 2 m/s 634 mmHg 61%
    13:00 +18°C° 0.6 mm 2 m/s 634 mmHg 65%
    14:00 +18°C° 0.6 mm 2 m/s 633 mmHg 69%
    15:00 +17°C° 0.6 mm 2 m/s 632 mmHg 73%
    16:00 +16°C° 1.3 mm 2 m/s 632 mmHg 78%
    17:00 +16°C° 1.3 mm 1 m/s 631 mmHg 84%
    18:00 +15°C° 1.3 mm 1 m/s 631 mmHg 89%
    19:00 +14°C° 0.9 mm 1 m/s 631 mmHg 91%
    20:00 +13°C° 0.9 mm 1 m/s 630 mmHg 92%
    21:00 +12°C° 0.9 mm 1 m/s 630 mmHg 94%
    22:00 +12°C° 0.6 mm 1 m/s 630 mmHg 95%
    23:00 +12°C° 0.6 mm 1 m/s 630 mmHg 95%

    3 Iunie, Miercuri

    Timp Temperatura Precipitaţii Vânt Presiune Umiditate
    00:00 +12°C° 0.6 mm 1 m/s 630 mmHg 96%
    01:00 +11°C° 0.1 mm 1 m/s 629 mmHg 95%
    02:00 +11°C° 0.1 mm 1 m/s 628 mmHg 95%
    03:00 +10°C° 0.1 mm 0 m/s 628 mmHg 95%
    04:00 +10°C° 0.3 mm 0 m/s 628 mmHg 95%
    05:00 +11°C° 0.3 mm 1 m/s 628 mmHg 94%
    06:00 +12°C° 0.3 mm 1 m/s 628 mmHg 94%
    07:00 +13°C° 0.3 mm 1 m/s 629 mmHg 91%
    08:00 +14°C° 0.3 mm 1 m/s 629 mmHg 88%
    09:00 +15°C° 0.3 mm 2 m/s 629 mmHg 85%
    10:00 +15°C° 0.9 mm 2 m/s 629 mmHg 86%
    11:00 +15°C° 0.9 mm 2 m/s 629 mmHg 87%
    12:00 +15°C° 0.9 mm 2 m/s 629 mmHg 88%
    13:00 +15°C° 1.1 mm 2 m/s 629 mmHg 88%
    14:00 +15°C° 1.1 mm 2 m/s 628 mmHg 88%
    15:00 +15°C° 1.1 mm 1 m/s 628 mmHg 88%
    16:00 +15°C° 0.9 mm 1 m/s 628 mmHg 90%
    17:00 +14°C° 0.9 mm 1 m/s 628 mmHg 92%
    18:00 +14°C° 0.9 mm 1 m/s 627 mmHg 95%
    19:00 +13°C° 0.8 mm 1 m/s 627 mmHg 95%
    20:00 +13°C° 0.8 mm 1 m/s 627 mmHg 96%
    21:00 +12°C° 0.8 mm 1 m/s 628 mmHg 96%
    22:00 +12°C° 0.4 mm 1 m/s 627 mmHg 96%
    23:00 +11°C° 0.4 mm 1 m/s 627 mmHg 95%
    Arată mai mult